[[{"header":{"parameterUnit":"m.s-1","parameterCategory":1,"la1":30.2991,"la2":30.254,"lo1":-89.0895,"lo2":-89.0444,"dy":0.0017,"dx":0.0017,"nx":28,"ny":28,"refTime":"2023-09-23T09:00:00:Z","depth":0,"parameterNumber":2,"parameterNumberName":"U-component_of_WINDS"},"data":[0,0,0,0,0,0,0,0,0,0,0,0,0,0,0,0,0,0,0,0,0,0,0,0,0,0,0,0,0,0,0,0,0,0,0,0,0,0,0,0,0,0,0,0,0,0,0,0,0,0,0,0,0,0,0,0,0,0,-0.0226,-0.0225,0,-0.0177,-0.0176,-0.0176,-0.0144,-0.0143,-0.0143,-0.0143,-0.009,-0.0089,-0.0088,0,0,0,0,0,0,0,0,0,0,0,0,0,-0.0289,-0.0288,-0.0226,-0.0225,-0.0225,-0.0177,-0.0176,-0.0176,-0.0144,-0.0143,-0.0143,-0.0143,-0.0091,-0.0089,-0.0088,0,0,0,0,0,0,0,0,0,0,0,0,0,-0.0253,-0.0288,-0.0226,-0.0203,-0.02,-0.0177,-0.0176,-0.0175,-0.0144,-0.0143,-0.0143,-0.0143,-0.0091,-0.009,-0.0088,-0.0083,0,0,-0.0082,-0.0081,0,0,0,0,0,0,0,0,-0.0255,-0.0251,-0.0207,-0.0204,-0.0202,-0.0166,-0.0179,-0.0144,-0.0144,-0.0165,-0.0143,-0.0143,-0.0116,-0.0112,-0.0103,-0.008,-0.0078,-0.0082,-0.0081,-0.008,-0.008,0,0,0,0,0,0,0,-0.0258,-0.0253,-0.0206,-0.0206,-0.0203,-0.0194,-0.0189,-0.0173,-0.0143,-0.0163,-0.0161,-0.0156,-0.0114,-0.0105,-0.0102,-0.0077,-0.0082,-0.0081,-0.0079,-0.0079,-0.0048,-0.0049,0,0,0,0,0,0,-0.0264,-0.0255,-0.0208,-0.0205,-0.0228,-0.0194,-0.0187,-0.0178,-0.0143,-0.0137,-0.0156,-0.0154,-0.0108,-0.0104,-0.01,-0.0092,-0.008,-0.0079,-0.0078,-0.0048,-0.0049,-0.0049,0,0,0,0,0,0,-0.0266,-0.026,-0.021,-0.0229,-0.0222,-0.0193,-0.0182,-0.0177,-0.0168,-0.0137,-0.0132,-0.0152,-0.0108,-0.0102,-0.0088,-0.009,-0.0078,-0.0076,-0.0048,-0.0048,-0.0049,-0.0077,0,0,0,0,0,0,-0.0268,-0.0261,-0.0259,-0.023,-0.0221,-0.0199,-0.0182,-0.0176,-0.0165,-0.0163,-0.0132,-0.0127,-0.0107,-0.0091,-0.0086,-0.0087,-0.0075,-0.0047,-0.0048,-0.0049,-0.0076,-0.0079,-0.0081,0,0,0,0,0,-0.027,-0.0269,-0.0259,-0.0254,-0.0219,-0.0199,-0.0195,-0.0173,-0.0166,-0.0163,-0.0144,-0.0128,-0.0091,-0.0089,-0.0084,-0.0085,-0.0047,-0.0048,-0.0049,-0.0075,-0.0078,-0.0081,0,0,0,0,0,0,-0.0298,-0.0264,-0.0254,-0.0243,-0.0224,-0.0194,-0.0191,-0.0177,-0.0159,-0.0157,-0.013,-0.0123,-0.0112,-0.0096,-0.0096,-0.0078,-0.0067,-0.0067,-0.0089,-0.0092,-0.0094,-0.0098,-0.0073,0,0,0,0,0,-0.0304,-0.0292,-0.0262,-0.0255,-0.0247,-0.022,-0.0211,-0.0196,-0.0175,-0.0167,-0.0146,-0.0126,-0.011,-0.01,-0.0083,-0.0073,-0.0067,-0.0071,-0.0074,-0.0076,-0.0076,-0.0071,-0.0073,-0.0051,-0.0051,-0.0051,0,0,-0.0314,-0.0294,-0.0288,-0.026,-0.0244,-0.0232,-0.0214,-0.0201,-0.0192,-0.0165,-0.015,-0.0134,-0.011,-0.0098,-0.0092,-0.0085,-0.0081,-0.0077,-0.0079,-0.0078,-0.0071,-0.0073,-0.0075,-0.0051,-0.0051,-0.0051,0,0,-0.0326,-0.031,-0.0303,-0.0287,-0.0264,-0.0246,-0.0245,-0.0216,-0.0205,-0.019,-0.017,-0.0158,-0.013,-0.0114,-0.0102,-0.011,-0.0095,-0.0105,-0.0118,-0.0113,-0.0114,-0.0116,-0.0119,-0.012,-0.0105,-0.0105,-0.0105,0,-0.0342,-0.0323,-0.0301,-0.029,-0.0278,-0.0254,-0.0247,-0.0232,-0.0204,-0.0197,-0.019,-0.0156,-0.0138,-0.0122,-0.0124,-0.0115,-0.0112,-0.0108,-0.0116,-0.0117,-0.0118,-0.0121,-0.0122,-0.0106,-0.0106,-0.0106,-0.0106,0,-0.0344,-0.0331,-0.0328,-0.0303,-0.0291,-0.0282,-0.0257,-0.0248,-0.0234,-0.0217,-0.0202,-0.018,-0.0159,-0.0154,-0.0139,-0.0136,-0.0133,-0.0121,-0.0109,-0.0122,-0.0124,-0.0125,-0.0108,-0.0108,-0.0107,-0.0107,0,0,-0.0373,-0.0336,-0.0335,-0.0324,-0.0296,-0.0285,-0.0275,-0.0255,-0.0248,-0.0229,-0.022,-0.0198,-0.0187,-0.0174,-0.0157,-0.0153,-0.0161,-0.0142,-0.0141,-0.0147,-0.0157,-0.0166,-0.0168,-0.0151,-0.0151,-0.0151,-0.0159,0,-0.0382,-0.0363,-0.0343,-0.0331,-0.0319,-0.0296,-0.0287,-0.0269,-0.0253,-0.024,-0.0222,-0.0207,-0.0194,-0.0186,-0.018,-0.0161,-0.0163,-0.016,-0.0142,-0.0141,-0.0149,-0.0169,-0.0178,-0.0187,-0.016,-0.016,-0.016,0,-0.039,-0.0374,-0.0361,-0.0335,-0.0329,-0.0322,-0.0302,-0.029,-0.0269,-0.0258,-0.0244,-0.0226,-0.0214,-0.0203,-0.0186,-0.0185,-0.0176,-0.0165,-0.0165,-0.0163,-0.0152,-0.0168,-0.019,-0.0191,-0.0161,-0.0161,-0.0161,0,-0.0414,-0.0388,-0.0378,-0.0368,-0.0337,-0.0333,-0.032,-0.0298,-0.0288,-0.027,-0.0264,-0.0245,-0.0234,-0.022,-0.0198,-0.0192,-0.0183,-0.0171,-0.0174,-0.0174,-0.0173,-0.0174,-0.0195,-0.0167,-0.0167,-0.0167,-0.0167,0,-0.0426,-0.042,-0.0388,-0.0382,-0.0373,-0.0349,-0.0342,-0.0326,-0.0308,-0.0297,-0.0276,-0.0267,-0.0238,-0.0225,-0.0208,-0.0197,-0.0192,-0.0182,-0.0178,-0.0185,-0.0186,-0.0179,-0.0178,-0.0167,-0.0167,-0.0167,-0.0167,0,-0.0452,-0.043,-0.0417,-0.0389,-0.0382,-0.0377,-0.0353,-0.0346,-0.0329,-0.0317,-0.0312,-0.0285,-0.0269,-0.0246,-0.0223,-0.0211,-0.0203,-0.0195,-0.021,-0.0208,-0.0213,-0.0213,-0.023,-0.0232,-0.0202,-0.0203,-0.0203,0,-0.0461,-0.0456,-0.0428,-0.042,-0.0408,-0.0395,-0.0385,-0.0361,-0.0351,-0.0327,-0.0322,-0.0305,-0.029,-0.0266,-0.0244,-0.0226,-0.0218,-0.0225,-0.0215,-0.0223,-0.0219,-0.022,-0.022,-0.0228,-0.0229,-0.0229,-0.0229,0,-0.0481,-0.0471,-0.0457,-0.044,-0.0429,-0.0414,-0.0397,-0.0392,-0.0365,-0.0354,-0.0338,-0.0327,-0.0304,-0.0287,-0.0266,-0.0252,-0.0236,-0.0233,-0.0233,-0.024,-0.0249,-0.0245,-0.0218,-0.0232,-0.0232,-0.0232,-0.0232,-0.0231,-0.05,-0.0494,-0.0474,-0.0459,-0.0445,-0.043,-0.0422,-0.0405,-0.0391,-0.0371,-0.0358,-0.0343,-0.0322,-0.0293,-0.028,-0.0267,-0.026,-0.026,-0.026,-0.0261,-0.0264,-0.0251,-0.0263,-0.0263,-0.0263,-0.0263,-0.0263,0,-0.0519,-0.0505,-0.0492,-0.0471,-0.0459,-0.0446,-0.0428,-0.0419,-0.0406,-0.0389,-0.0375,-0.0357,-0.034,-0.0317,-0.0299,-0.0294,-0.0286,-0.029,-0.0291,-0.0288,-0.027,-0.0273,-0.0297,-0.0297,-0.0297,-0.0297,-0.0297,-0.0297,-0.0528,-0.0518,-0.0506,-0.0488,-0.0474,-0.046,-0.0451,-0.0437,-0.0423,-0.0404,-0.0391,-0.0376,-0.0357,-0.0337,-0.0322,-0.0315,-0.031,-0.0316,-0.0308,-0.0292,-0.0289,-0.0286,-0.0288,-0.0315,-0.0315,-0.0327,-0.0327,-0.0327]},{"header":{"parameterUnit":"m.s-1","parameterCategory":1,"la1":30.2991,"la2":30.254,"lo1":-89.0895,"lo2":-89.0444,"dy":0.0017,"dx":0.0017,"nx":28,"ny":28,"refTime":"2023-09-23T09:00:00:Z","depth":0,"parameterNumber":3,"parameterNumberName":"V-component_of_WINDS"},"data":[0,0,0,0,0,0,0,0,0,0,0,0,0,0,0,0,0,0,0,0,0,0,0,0,0,0,0,0,0,0,0,0,0,0,0,0,0,0,0,0,0,0,0,0,0,0,0,0,0,0,0,0,0,0,0,0,0,0,1.5839,1.5838,0,1.5759,1.5758,1.5757,1.5764,1.5766,1.5767,1.5768,1.5679,1.5676,1.5672,0,0,0,0,0,0,0,0,0,0,0,0,0,1.599,1.5987,1.5839,1.5838,1.5837,1.5759,1.5758,1.5757,1.5764,1.5766,1.5767,1.5769,1.568,1.5676,1.5672,0,0,0,0,0,0,0,0,0,0,0,0,0,1.5918,1.5986,1.5839,1.5831,1.583,1.5759,1.5758,1.5757,1.5764,1.5766,1.5768,1.5769,1.5682,1.5677,1.5671,1.5601,0,0,1.5655,1.5653,0,0,0,0,0,0,0,0,1.5922,1.5913,1.5833,1.5832,1.583,1.5774,1.5779,1.5704,1.5763,1.5789,1.5768,1.577,1.5709,1.5701,1.5682,1.5597,1.5593,1.5655,1.5651,1.5649,1.5648,0,0,0,0,0,0,0,1.5927,1.5916,1.5807,1.5832,1.583,1.5829,1.5821,1.5765,1.5739,1.5787,1.5787,1.5778,1.5708,1.5687,1.568,1.5592,1.5655,1.565,1.5647,1.5645,1.5442,1.544,0,0,0,0,0,0,1.5935,1.592,1.581,1.5805,1.5882,1.5825,1.5816,1.579,1.574,1.5734,1.5776,1.5779,1.5695,1.5686,1.5677,1.5589,1.5649,1.5644,1.5641,1.5444,1.5442,1.5439,0,0,0,0,0,0,1.5938,1.5925,1.5813,1.5863,1.5848,1.5821,1.5791,1.5787,1.5766,1.5732,1.5727,1.576,1.5696,1.5684,1.562,1.5586,1.5642,1.5637,1.5447,1.5443,1.544,1.5414,0,0,0,0,0,0,1.5943,1.5927,1.5901,1.5862,1.5846,1.5759,1.5789,1.5784,1.5758,1.576,1.5715,1.571,1.5697,1.5628,1.5614,1.558,1.5633,1.545,1.5445,1.5441,1.5418,1.541,1.5404,0,0,0,0,0,1.5948,1.5896,1.59,1.5887,1.5814,1.5757,1.5748,1.5736,1.5755,1.5728,1.5706,1.5711,1.5593,1.5621,1.5606,1.5569,1.5452,1.5447,1.5442,1.5421,1.5412,1.5404,0,0,0,0,0,0,1.593,1.5891,1.5895,1.5829,1.5797,1.5759,1.5725,1.5727,1.5687,1.569,1.5676,1.5665,1.56,1.5578,1.5611,1.5497,1.5524,1.5516,1.5513,1.5504,1.5497,1.5502,1.5629,0,0,0,0,0,1.5919,1.5878,1.5846,1.579,1.5774,1.5752,1.5727,1.5721,1.5686,1.5672,1.5645,1.5608,1.5563,1.5533,1.5489,1.5416,1.5404,1.5383,1.5376,1.537,1.5362,1.5318,1.5308,1.5423,1.5423,1.5423,0,0,1.5894,1.5868,1.5843,1.5786,1.576,1.5716,1.5741,1.5693,1.5659,1.5664,1.5601,1.558,1.5538,1.5468,1.5436,1.5448,1.5328,1.5364,1.536,1.5354,1.5312,1.5301,1.5292,1.5419,1.542,1.5421,0,0,1.5826,1.5804,1.5754,1.5728,1.569,1.5675,1.5663,1.5625,1.5611,1.5549,1.5551,1.5509,1.5432,1.5401,1.5375,1.5295,1.5297,1.5281,1.5244,1.5201,1.5192,1.5184,1.5152,1.5141,1.5274,1.5274,1.5274,0,1.5799,1.5735,1.5728,1.568,1.5653,1.5658,1.5606,1.558,1.5528,1.5508,1.5524,1.5426,1.5398,1.5319,1.53,1.528,1.5263,1.5285,1.5195,1.5186,1.5178,1.5148,1.5136,1.5272,1.5273,1.5273,1.5273,0,1.5703,1.5658,1.5622,1.5574,1.5544,1.5494,1.5476,1.5446,1.5443,1.5426,1.536,1.5328,1.5276,1.5258,1.5254,1.5177,1.5186,1.5199,1.5225,1.5166,1.5136,1.5125,1.527,1.527,1.5271,1.5271,0,0,1.5619,1.5568,1.5554,1.5531,1.5489,1.5453,1.5402,1.5354,1.5327,1.5291,1.5246,1.518,1.5191,1.5162,1.5154,1.5117,1.5052,1.5133,1.5132,1.5116,1.4962,1.4951,1.4937,1.5054,1.5052,1.505,1.4964,0,1.5544,1.5457,1.5448,1.5368,1.5325,1.5329,1.5284,1.5252,1.5234,1.5193,1.5173,1.5126,1.5145,1.5127,1.5091,1.5067,1.502,1.5074,1.5008,1.5005,1.5015,1.4923,1.4911,1.4832,1.4953,1.4951,1.495,0,1.5445,1.5408,1.5324,1.5287,1.5268,1.5228,1.5182,1.5144,1.5106,1.5096,1.5063,1.506,1.5005,1.5036,1.4957,1.4993,1.4966,1.495,1.4947,1.4937,1.4972,1.4907,1.4806,1.4793,1.4932,1.4934,1.4935,0,1.5389,1.5318,1.5258,1.5239,1.5194,1.5165,1.5145,1.5109,1.508,1.5039,1.502,1.4973,1.4946,1.4908,1.4891,1.4916,1.4811,1.4842,1.4798,1.4798,1.4774,1.4775,1.4663,1.4762,1.4762,1.4762,1.4762,0,1.5304,1.5252,1.5232,1.5194,1.5135,1.5125,1.5066,1.5046,1.5014,1.4971,1.4972,1.493,1.4912,1.4867,1.4854,1.4788,1.4777,1.4765,1.4761,1.4763,1.4764,1.4742,1.4746,1.4759,1.476,1.476,1.4761,0,1.523,1.5215,1.5149,1.5113,1.5102,1.506,1.5027,1.4989,1.4973,1.4918,1.4904,1.4878,1.4825,1.4805,1.4741,1.4731,1.4654,1.4657,1.4668,1.4666,1.4622,1.4625,1.449,1.447,1.4585,1.4584,1.4583,0,1.5175,1.5136,1.5095,1.5067,1.5046,1.5001,1.4972,1.496,1.4929,1.4882,1.4849,1.4798,1.4755,1.467,1.4643,1.4592,1.4591,1.4548,1.4584,1.4586,1.4586,1.4588,1.4582,1.454,1.4539,1.4538,1.4537,0,1.5079,1.5074,1.5033,1.4989,1.4954,1.4918,1.4883,1.486,1.4842,1.4806,1.4753,1.4721,1.4655,1.4602,1.455,1.4526,1.4526,1.4526,1.4513,1.4513,1.4519,1.4511,1.4646,1.4529,1.453,1.453,1.4531,1.4531,1.5011,1.4975,1.494,1.4894,1.4867,1.4834,1.4796,1.4776,1.4732,1.4679,1.4674,1.4616,1.4577,1.4508,1.4482,1.4434,1.4445,1.4427,1.4422,1.4416,1.4411,1.453,1.4425,1.4425,1.4425,1.4426,1.4426,0,1.4912,1.489,1.4848,1.4799,1.4762,1.477,1.4731,1.4698,1.4648,1.4613,1.4572,1.4509,1.4458,1.4427,1.4374,1.4342,1.4341,1.4328,1.4328,1.4322,1.4406,1.4421,1.433,1.433,1.433,1.433,1.433,1.433,1.4856,1.4794,1.4784,1.4708,1.4686,1.4631,1.4607,1.4576,1.4547,1.4478,1.4436,1.4418,1.4383,1.4328,1.428,1.4272,1.4251,1.4236,1.4229,1.4307,1.4317,1.4326,1.434,1.4233,1.4233,1.4148,1.4148,1.4147]}]]